Location: Tierz
(42.1336°N, 0.3549°W)
Time: 15:39:32
(UTC+00:00)

SKYMED 2 - Pass Details

Date: 29 October 2020
Orbit: 621 x 623 km, 97.9° (Epoch: 26 November)

Event Time Altitude Azimuth Distance (km) Brightness Sun altitude
Rises 17:51:00 0° 17° (NNE) 2,911 6.7 -10.3°
Reaches altitude 10° 17:53:14 10° 21° (NNE) 2,000 5.9 -10.7°
Maximum altitude 17:57:31 56° 101° (E) 741 3.6 -11.5°
Drops below altitude 10° 18:01:45 10° 179° (S) 1,983 6.2 -12.2°
Sets 18:03:58 0° 184° (S) 2,885 7.1 -12.7°
